Weather History for Morganton, NC

Change the Weather History Date:

Thursday, February 21, 2013

  Actual Average (KHKY) Record (KHKY)
Temperature  
Mean Temperature 38 °F -  
Max Temperature 58 °F 55 °F 73 °F (1986)
Min Temperature 18 °F 32 °F 17 °F (1959)
Degree Days  
Heating Degree Days 27    
Moisture  
Dew Point 15 °F    
Average Humidity 44    
Maximum Humidity 96    
Minimum Humidity 11    
Precipitation  
Precipitation 0.10 in - - ()
Sea Level Pressure  
Sea Level Pressure 30.18 in    
Wind  
Wind Speed 1 mph (East)    
Max Wind Speed 7 mph    
Max Gust Speed -    
Visibility 10 miles    
Events Rain    
Averages and records for this station are not official NWS values.
T = Trace of Precipitation, MM = Missing Value Source: NWS Daily Summary

Daily Weather History Graph

Daily Weather History Graph

Search for Another Location

Airport:

Trip Planner

Search our weather history database for the weather conditions in past years. The results will help you decide how hot, cold, wet, or windy it might be!

Date:

Astronomy

Feb. 21, 2013 Rise Set
Actual Time 7:06 AM EST 6:14 PM EST
Civil Twilight 6:40 AM EST 6:40 PM EST
Nautical Twilight 6:10 AM EST 7:09 PM EST
Astronomical Twilight 5:41 AM EST 7:39 PM EST
Moon 2:32 PM EST 4:04 AM EST
Length of Visible Light 11h 59m
Length of Day
11h 08m
Waxing Gibbous, 83% of the Moon is Illuminated
Feb 21
Waxing Gibbous
Feb 25
Full
Mar 4
Last Quarter
Mar 11
New
Mar 19
First Quarter

Hourly Weather History & Observations

Time (EST) Temp. Windchill Dew Point Humidity Pressure Visibility Wind Dir Wind Speed Gust Speed Precip Events Conditions
12:15 AM 26.1 °F - 12.7 °F 57% 30.14 in 10.0 mi Calm Calm - N/A   Clear
12:35 AM 25.9 °F - 11.5 °F 55% 30.14 in 10.0 mi Calm Calm - N/A   Clear
12:55 AM 27.3 °F - 11.7 °F 52% 30.14 in 10.0 mi Calm Calm - N/A   Clear
1:15 AM 25.2 °F - 13.8 °F 62% 30.15 in 10.0 mi Calm Calm - N/A   Clear
1:35 AM 24.6 °F - 14.5 °F 66% 30.14 in 10.0 mi Calm Calm - N/A   Clear
1:55 AM 23.4 °F - 13.1 °F 65% 30.15 in 10.0 mi Calm Calm - N/A   Clear
2:15 AM 23.4 °F 18.9 °F 12.4 °F 63% 30.14 in 10.0 mi North 3.5 mph - N/A   Clear
2:35 AM 27.7 °F 23.8 °F 10.9 °F 50% 30.15 in 10.0 mi North 3.5 mph - N/A   Clear
2:55 AM 24.1 °F - 13.8 °F 65% 30.15 in 10.0 mi Calm Calm - N/A   Clear
3:15 AM 23.9 °F - 13.8 °F 65% 30.15 in 10.0 mi Calm Calm - N/A   Clear
3:35 AM 23.2 °F - 13.6 °F 67% 30.15 in 10.0 mi Calm Calm - N/A   Clear
3:55 AM 23.0 °F - 13.3 °F 66% 30.16 in 10.0 mi Calm Calm - N/A   Clear
4:15 AM 21.6 °F - 14.0 °F 73% 30.16 in 10.0 mi Calm Calm - N/A   Clear
4:35 AM 21.6 °F - 14.0 °F 73% 30.17 in 10.0 mi Calm Calm - N/A   Clear
4:55 AM 21.4 °F - 13.1 °F 70% 30.17 in 10.0 mi Calm Calm - N/A   Clear
5:15 AM 19.8 °F - 14.2 °F 79% 30.17 in 10.0 mi Calm Calm - N/A   Clear
5:35 AM 20.5 °F - 14.5 °F 78% 30.17 in 10.0 mi Calm Calm - N/A   Clear
5:55 AM 23.0 °F - 14.9 °F 71% 30.18 in 10.0 mi Calm Calm - N/A   Clear
6:15 AM 20.8 °F - 14.7 °F 77% 30.19 in 10.0 mi Calm Calm - N/A   Clear
7:15 AM 18.9 °F - 14.9 °F 85% 30.21 in 10.0 mi Calm Calm - N/A   Clear
7:35 AM 20.8 °F - 16.9 °F 85% 30.23 in 10.0 mi Calm Calm - N/A   Clear
7:55 AM 24.8 °F - 18.0 °F 75% 30.23 in 10.0 mi Calm Calm - N/A   Clear
8:15 AM 28.0 °F - 18.1 °F 66% 30.23 in 10.0 mi Calm Calm - N/A   Clear
8:35 AM 30.4 °F - 17.8 °F 60% 30.24 in 10.0 mi Calm Calm - N/A   Clear
8:55 AM 32.0 °F - 15.8 °F 51% 30.22 in 10.0 mi Calm Calm - N/A   Clear
9:15 AM 34.2 °F - 13.6 °F 43% 30.23 in 10.0 mi Calm Calm - N/A   Clear
9:35 AM 36.1 °F - 15.3 °F 43% 30.23 in 10.0 mi Calm Calm - N/A   Clear
9:55 AM 38.7 °F 35.2 °F 10.9 °F 32% 30.23 in 10.0 mi South 4.6 mph - N/A   Clear
10:15 AM 40.3 °F 38.2 °F 9.0 °F 28% 30.23 in 10.0 mi West 3.5 mph - N/A   Clear
10:35 AM 41.2 °F - 7.2 °F 25% 30.23 in 10.0 mi Calm Calm - N/A   Clear
10:55 AM 43.9 °F 41.3 °F 8.2 °F 23% 30.22 in 10.0 mi South 4.6 mph - N/A   Clear
11:15 AM 45.3 °F 44.0 °F 8.1 °F 22% 30.21 in 10.0 mi East 3.5 mph - N/A   Clear
11:35 AM 46.4 °F 44.3 °F 6.1 °F 19% 30.21 in 10.0 mi SSW 4.6 mph - N/A   Clear
11:55 AM 47.8 °F - 6.4 °F 19% 30.20 in 10.0 mi South 3.5 mph - N/A   Clear
12:15 PM 49.3 °F - 5.7 °F 17% 30.18 in 10.0 mi SW 3.5 mph - N/A   Clear
12:35 PM 51.3 °F - 6.4 °F 16% 30.17 in 10.0 mi Calm Calm - N/A   Clear
12:55 PM 53.2 °F - 3.7 °F 13% 30.15 in 10.0 mi Calm Calm - N/A   Clear
1:15 PM 53.8 °F - 4.8 °F 14% 30.14 in 10.0 mi South 3.5 mph - N/A   Clear
1:35 PM 55.8 °F - 6.3 °F 14% 30.13 in 10.0 mi Calm Calm - N/A   Clear
1:55 PM 57.2 °F - 4.5 °F 12% 30.12 in 10.0 mi Calm Calm - N/A   Clear
2:15 PM 57.6 °F - 3.0 °F 11% 30.12 in 10.0 mi ENE 3.5 mph - N/A   Clear
2:35 PM 57.7 °F - 3.7 °F 11% 30.10 in 10.0 mi Calm Calm - N/A   Clear
2:55 PM 57.6 °F - 4.3 °F 12% 30.11 in 10.0 mi Calm Calm - N/A   Clear
3:15 PM 57.7 °F - 7.2 °F 13% 30.12 in 10.0 mi East 3.5 mph - N/A   Clear
3:55 PM 58.5 °F - 12.0 °F 16% 30.13 in 10.0 mi ESE 4.6 mph - N/A   Clear
4:15 PM 57.9 °F - 12.2 °F 16% 30.13 in 10.0 mi ENE 3.5 mph - N/A   Clear
4:35 PM 57.2 °F - 14.4 °F 19% 30.12 in 10.0 mi ENE 4.6 mph - N/A   Clear
4:55 PM 56.3 °F - 15.3 °F 20% 30.11 in 10.0 mi ENE 6.9 mph - N/A   Clear
5:15 PM 55.2 °F - 16.3 °F 22% 30.12 in 10.0 mi East 4.6 mph - N/A   Clear
5:35 PM 54.1 °F - 16.7 °F 23% 30.12 in 10.0 mi East 3.5 mph - N/A   Clear
5:55 PM 53.4 °F - 16.3 °F 23% 30.14 in 10.0 mi East 4.6 mph - N/A   Clear
6:15 PM 52.7 °F - 16.3 °F 24% 30.15 in 10.0 mi East 3.5 mph - N/A   Clear
6:35 PM 52.0 °F - 16.7 °F 25% 30.16 in 10.0 mi East 4.6 mph - N/A   Clear
6:55 PM 50.9 °F - 17.2 °F 26% 30.15 in 10.0 mi East 3.5 mph - N/A   Clear
7:15 PM 49.5 °F - 18.0 °F 29% 30.15 in 10.0 mi ENE 4.6 mph - N/A   Clear
7:35 PM 50.0 °F - 15.3 °F 25% 30.15 in 10.0 mi East 4.6 mph - N/A   Clear
7:55 PM 49.6 °F - 17.1 °F 27% 30.16 in 10.0 mi ENE 3.5 mph - N/A   Clear
8:15 PM 49.1 °F - 18.0 °F 29% 30.16 in 10.0 mi ENE 3.5 mph - N/A   Clear
8:35 PM 49.1 °F - 17.2 °F 28% 30.17 in 10.0 mi East 3.5 mph - N/A   Clear
8:55 PM 49.1 °F - 17.1 °F 28% 30.18 in 10.0 mi Calm Calm - N/A   Clear
9:15 PM 47.7 °F - 18.9 °F 32% 30.19 in 10.0 mi Calm Calm - N/A   Mostly Cloudy
9:35 PM 47.8 °F - 19.9 °F 33% 30.21 in 10.0 mi Calm Calm - N/A   Overcast
9:55 PM 46.8 °F - 24.1 °F 41% 30.24 in 10.0 mi SSW 4.6 mph - N/A Rain Light Rain
10:15 PM 43.2 °F - 32.4 °F 66% 30.25 in 10.0 mi Calm Calm - N/A Rain Light Rain
10:35 PM 41.4 °F - 35.4 °F 79% 30.22 in 10.0 mi Calm Calm - N/A Rain Rain
10:55 PM 43.2 °F 40.5 °F 31.6 °F 64% 30.27 in 10.0 mi NW 4.6 mph - N/A Rain Light Rain
11:15 PM 39.4 °F 37.2 °F 37.4 °F 93% 30.27 in 7.0 mi NNE 3.5 mph - 0.01 in Rain Light Rain
11:35 PM 38.5 °F 36.1 °F 35.1 °F 87% 30.28 in 4.0 mi North 3.5 mph - 0.05 in Rain Heavy Rain
11:55 PM 36.5 °F - 35.4 °F 96% 30.29 in 2.5 mi Calm Calm - 0.10 in Rain Heavy Rain